Weather History for KAZO - April, 2013

Change the Weather History Date:

Saturday, April 13, 2013

  Actual Average Record
Temperature  
Mean Temperature 40 °F 48 °F  
Max Temperature 43 °F 59 °F 122 °F (2004)
Min Temperature 36 °F 37 °F 18 °F (1950)
Degree Days  
Heating Degree Days 25 17  
Month to date heating degree days 299 252  
Since 1 July heating degree days 5869 5909  
Cooling Degree Days 0 0  
Month to date cooling degree days 0 0  
Year to date cooling degree days 0 0  
Moisture  
Dew Point 28 °F    
Average Humidity 68    
Maximum Humidity 85    
Minimum Humidity 51    
Precipitation  
Precipitation T in 0.10 in 0.93 in (1952)
Month to date precipitation 2.14 1.24  
Year to date precipitation 7.48 6.73  
Sea Level Pressure  
Sea Level Pressure 29.89 in    
Wind  
Wind Speed 12 mph (West)    
Max Wind Speed 25 mph    
Max Gust Speed 32 mph    
Visibility 10 miles    
Events Rain , Snow    
T = Trace of Precipitation, MM = Missing Value Source: NWS Daily Summary

Daily Weather History Graph

Daily Weather History Graph

Search for Another Location

Airport or City:

Trip Planner

Search our weather history database for the weather conditions in past years. The results will help you decide how hot, cold, wet, or windy it might be!

Date:

Astronomy

Apr. 13, 2013 Rise Set
Actual Time 7:04 AM EDT 8:21 PM EDT
Civil Twilight 6:35 AM EDT 8:50 PM EDT
Nautical Twilight 6:00 AM EDT 9:25 PM EDT
Astronomical Twilight 5:23 AM EDT 10:02 PM EDT
Moon 8:52 AM EDT (4/13) 11:48 PM EDT (4/13)
Length of Visible Light 14h 15m
Length of Day
13h 17m
Waxing Crescent, 10% of the Moon is Illuminated
Apr 13
Waxing Crescent
Apr 18
First Quarter
Apr 25
Full
May 2
Last Quarter
May 9
New

Hourly Weather History & Observations

Time (EDT) Temp. Windchill Dew Point Humidity Pressure Visibility Wind Dir Wind Speed Gust Speed Precip Events Conditions
12:53 AM 37.9 °F 30.5 °F 33.1 °F 83% 29.83 in 10.0 mi West 11.5 mph - N/A   Overcast
1:38 AM 37.4 °F 29.8 °F 30.2 °F 75% 29.81 in 10.0 mi West 11.5 mph - N/A   Overcast
1:53 AM 37.0 °F 30.4 °F 30.9 °F 79% 29.84 in 10.0 mi West 9.2 mph - N/A   Overcast
2:53 AM 37.0 °F 31.0 °F 30.0 °F 76% 29.84 in 10.0 mi WSW 8.1 mph - N/A   Overcast
3:07 AM 37.4 °F 30.3 °F 30.2 °F 75% 29.82 in 10.0 mi WSW 10.4 mph - N/A   Overcast
3:53 AM 37.0 °F 30.4 °F 30.0 °F 76% 29.84 in 10.0 mi WSW 9.2 mph - N/A   Overcast
4:53 AM 37.0 °F 29.3 °F 30.0 °F 76% 29.84 in 10.0 mi WSW 11.5 mph - N/A   Overcast
5:53 AM 37.0 °F 30.4 °F 30.0 °F 76% 29.83 in 9.0 mi West 9.2 mph - 0.00 in Rain Light Rain
6:53 AM 37.0 °F 29.8 °F 30.0 °F 76% 29.83 in 10.0 mi WSW 10.4 mph - 0.00 in Rain Light Rain
7:53 AM 37.0 °F 27.4 °F 28.9 °F 73% 29.84 in 10.0 mi WSW 17.3 mph 25.3 mph 0.00 in   Overcast
8:53 AM 37.0 °F 28.9 °F 27.0 °F 67% 29.85 in 10.0 mi WSW 12.7 mph - N/A   Overcast
9:53 AM 36.0 °F 27.1 °F 28.0 °F 73% 29.86 in 10.0 mi WSW 13.8 mph 21.9 mph 0.00 in   Overcast
10:53 AM 37.0 °F 28.1 °F 28.0 °F 70% 29.86 in 9.0 mi WSW 15.0 mph 23.0 mph 0.00 in Snow Light Snow
11:53 AM 37.9 °F 29.2 °F 28.0 °F 68% 29.88 in 8.0 mi West 15.0 mph 21.9 mph 0.00 in Snow Light Snow
12:53 PM 39.9 °F 31.8 °F 28.0 °F 63% 29.88 in 9.0 mi West 15.0 mph 21.9 mph 0.00 in   Unknown
1:53 PM 39.0 °F 28.8 °F 26.1 °F 60% 29.90 in 9.0 mi West 21.9 mph 27.6 mph 0.00 in   Unknown
2:53 PM 39.9 °F 30.8 °F 24.1 °F 53% 29.92 in 9.0 mi WNW 18.4 mph 25.3 mph 0.00 in   Overcast
3:53 PM 41.0 °F 31.4 °F 25.0 °F 53% 29.92 in 10.0 mi West 21.9 mph 32.2 mph N/A   Overcast
4:53 PM 41.0 °F 32.5 °F 24.1 °F 51% 29.94 in 10.0 mi West 17.3 mph 26.5 mph N/A   Overcast
5:53 PM 41.0 °F 31.6 °F 25.0 °F 53% 29.95 in 10.0 mi West 20.7 mph 25.3 mph N/A   Overcast
6:53 PM 39.9 °F 31.4 °F 25.0 °F 55% 29.96 in 10.0 mi West 16.1 mph 20.7 mph N/A   Overcast
7:53 PM 39.2 °F 33.0 °F 26.6 °F 61% 29.94 in 10.0 mi West 9.2 mph 18.4 mph N/A   Mostly Cloudy
8:53 PM 39.0 °F 34.0 °F 26.1 °F 60% 29.97 in 10.0 mi West 6.9 mph - N/A   Overcast
9:53 PM 37.9 °F 34.4 °F 26.1 °F 62% 29.99 in 10.0 mi WSW 4.6 mph - N/A   Overcast
10:53 PM 37.9 °F - 27.0 °F 65% 30.01 in 10.0 mi Calm Calm - N/A   Overcast
11:53 PM 37.0 °F - 27.0 °F 67% 30.01 in 10.0 mi Calm Calm - N/A   Overcast